Location: Bailleul
(50.3375°N, 2.8513°E)
Time: 21:01:08
(UTC+00:00)

USA 229 - Pass Details

Date: 19 April 2021
Orbit: 958 x 1254 km, 63.4° (Epoch: 23 April)

Event Time Altitude Azimuth Distance (km) Brightness Sun altitude
Rises 22:38:37 0° 316° (NW) 3,941 7.7 -26.3°
Reaches altitude 10° 22:41:13 10° 315° (NW) 3,021 6.9 -26.5°
Maximum altitude 22:48:29 78° 231° (SW) 1,219 3.8 -26.8°
Enters shadow 22:50:07 58° 162° (SSE) 1,382 3.9 -26.9°
